When you browse on this site, cookies collect data to enhance your experience and personalize the content and advertising you see.
Visit our Privacy Policy to learn more. By continuing to use the site, you agree to this use of cookies and data.
  • In Latvia
  • List of Countries
  • For 7 days
  • Water Temperature
  • Satellite Maps
  • Weather Map
  • Weather Widgets
  • user-avatar
    Login

    Hourly Weather Milcz

    Today, 21 February, Thursday

    Time Temperature Precipitation Wind Pressure Humidity
    00:00 +5°C° 0 mm 3 mps 755 mmHg 80%
    01:00 +5°C° 0 mm 3 mps 755 mmHg 81%
    02:00 +4°C° 0 mm 3 mps 755 mmHg 83%
    03:00 +4°C° 0 mm 3 mps 755 mmHg 84%
    04:00 +3°C° 0 mm 3 mps 755 mmHg 86%
    05:00 +3°C° 0 mm 3 mps 755 mmHg 86%
    06:00 +3°C° 0 mm 3 mps 755 mmHg 87%
    07:00 +3°C° 0 mm 4 mps 755 mmHg 87%
    08:00 +4°C° 0 mm 4 mps 755 mmHg 83%
    09:00 +5°C° 0 mm 4 mps 755 mmHg 78%
    10:00 +6°C° 0 mm 5 mps 755 mmHg 73%
    11:00 +6°C° 0.4 mm 5 mps 754 mmHg 74%
    12:00 +6°C° 0.4 mm 5 mps 754 mmHg 75%
    13:00 +6°C° 0.4 mm 5 mps 754 mmHg 76%
    14:00 +6°C° 1 mm 5 mps 754 mmHg 78%
    15:00 +6°C° 1 mm 4 mps 754 mmHg 80%
    16:00 +6°C° 1 mm 4 mps 753 mmHg 82%
    17:00 +6°C° 0.3 mm 4 mps 753 mmHg 82%
    18:00 +6°C° 0.3 mm 4 mps 753 mmHg 83%
    19:00 +6°C° 0.3 mm 4 mps 753 mmHg 84%
    20:00 +6°C° 0.5 mm 5 mps 753 mmHg 86%
    21:00 +6°C° 0.5 mm 5 mps 753 mmHg 88%
    22:00 +5°C° 0.5 mm 6 mps 752 mmHg 90%
    23:00 +6°C° 0.7 mm 5 mps 752 mmHg 91%

    Tomorrow, 22 February, Friday

    Time Temperature Precipitation Wind Pressure Humidity
    00:00 +6°C° 0.7 mm 5 mps 753 mmHg 92%
    01:00 +6°C° 0.7 mm 5 mps 753 mmHg 93%
    02:00 +6°C° 0.6 mm 5 mps 753 mmHg 93%
    03:00 +6°C° 0.6 mm 5 mps 753 mmHg 92%
    04:00 +5°C° 0.6 mm 6 mps 754 mmHg 92%
    05:00 +3°C° 0.1 mm 6 mps 755 mmHg 87%
    06:00 +1°C° 0.1 mm 6 mps 756 mmHg 82%
    07:00 -2°C° 0.1 mm 7 mps 758 mmHg 77%
    08:00 -2°C° 0 mm 6 mps 759 mmHg 71%
    09:00 -2°C° 0 mm 6 mps 760 mmHg 65%
    10:00 -2°C° 0 mm 6 mps 762 mmHg 59%
    11:00 -2°C° 0 mm 6 mps 762 mmHg 55%
    12:00 -1°C° 0 mm 5 mps 763 mmHg 51%
    13:00 0°C° 0 mm 5 mps 764 mmHg 47%
    14:00 0°C° 0 mm 5 mps 764 mmHg 45%
    15:00 -1°C° 0 mm 5 mps 765 mmHg 43%
    16:00 -1°C° 0 mm 4 mps 765 mmHg 42%
    17:00 -2°C° 0 mm 4 mps 766 mmHg 45%
    18:00 -1°C° 0 mm 3 mps 766 mmHg 49%
    19:00 -2°C° 0 mm 3 mps 767 mmHg 52%
    20:00 -2°C° 0 mm 2 mps 768 mmHg 52%
    21:00 -3°C° 0 mm 2 mps 768 mmHg 51%
    22:00 -3°C° 0 mm 2 mps 768 mmHg 51%
    23:00 -3°C° 0 mm 2 mps 769 mmHg 49%

    Day after tomorrow, 23 February, Saturday

    Time Temperature Precipitation Wind Pressure Humidity
    00:00 -3°C° 0 mm 2 mps 769 mmHg 48%
    01:00 -3°C° 0 mm 2 mps 769 mmHg 47%
    02:00 -3°C° 0 mm 2 mps 769 mmHg 46%
    03:00 -3°C° 0 mm 2 mps 769 mmHg 46%
    04:00 -3°C° 0 mm 2 mps 769 mmHg 45%
    05:00 -3°C° 0 mm 2 mps 769 mmHg 44%
    06:00 -2°C° 0 mm 1 mps 769 mmHg 44%
    07:00 -2°C° 0 mm 1 mps 769 mmHg 43%
    08:00 -3°C° 0 mm 2 mps 769 mmHg 39%
    09:00 -2°C° 0 mm 2 mps 770 mmHg 35%
    10:00 -2°C° 0 mm 2 mps 770 mmHg 31%
    11:00 -1°C° 0 mm 2 mps 770 mmHg 28%
    12:00 +1°C° 0 mm 2 mps 769 mmHg 26%
    13:00 +2°C° 0 mm 2 mps 769 mmHg 24%
    14:00 +3°C° 0 mm 1 mps 769 mmHg 24%
    15:00 +3°C° 0 mm 1 mps 768 mmHg 25%
    16:00 +3°C° 0 mm 1 mps 768 mmHg 26%
    17:00 +2°C° 0 mm 1 mps 768 mmHg 29%
    18:00 +1°C° 0 mm 1 mps 768 mmHg 32%
    19:00 0°C° 0 mm 1 mps 768 mmHg 35%
    20:00 0°C° 0 mm 1 mps 768 mmHg 35%
    21:00 -2°C° 0 mm 2 mps 768 mmHg 36%
    22:00 -2°C° 0 mm 2 mps 768 mmHg 37%
    23:00 -2°C° 0 mm 2 mps 767 mmHg 37%

    24 February, Sunday

    Time Temperature Precipitation Wind Pressure Humidity
    00:00 -2°C° 0 mm 2 mps 767 mmHg 36%
    01:00 -2°C° 0 mm 2 mps 767 mmHg 36%
    02:00 0°C° 0 mm 1 mps 767 mmHg 35%
    03:00 0°C° 0 mm 1 mps 766 mmHg 35%
    04:00 0°C° 0 mm 1 mps 766 mmHg 34%
    05:00 0°C° 0 mm 1 mps 766 mmHg 33%
    06:00 0°C° 0 mm 1 mps 766 mmHg 32%
    07:00 0°C° 0 mm 1 mps 766 mmHg 31%
    08:00 +1°C° 0 mm 1 mps 766 mmHg 30%
    09:00 +2°C° 0 mm 1 mps 766 mmHg 28%
    10:00 +3°C° 0 mm 2 mps 766 mmHg 26%
    11:00 +4°C° 0 mm 2 mps 766 mmHg 26%
    12:00 +5°C° 0 mm 2 mps 766 mmHg 27%
    13:00 +5°C° 0 mm 3 mps 766 mmHg 27%
    14:00 +6°C° 0 mm 2 mps 765 mmHg 33%
    15:00 +6°C° 0 mm 2 mps 765 mmHg 38%
    16:00 +5°C° 0 mm 2 mps 765 mmHg 44%
    17:00 +4°C° 0 mm 2 mps 765 mmHg 47%
    18:00 +3°C° 0 mm 2 mps 765 mmHg 51%
    19:00 +2°C° 0 mm 2 mps 765 mmHg 54%
    20:00 +1°C° 0 mm 2 mps 765 mmHg 57%
    21:00 +1°C° 0 mm 2 mps 765 mmHg 60%
    22:00 +1°C° 0 mm 2 mps 765 mmHg 62%
    23:00 +1°C° 0 mm 2 mps 765 mmHg 64%

    25 February, Monday

    Time Temperature Precipitation Wind Pressure Humidity
    00:00 +1°C° 0 mm 2 mps 765 mmHg 66%
    01:00 -1°C° 0 mm 2 mps 765 mmHg 68%
    02:00 -1°C° 0 mm 2 mps 765 mmHg 69%
    03:00 -1°C° 0 mm 2 mps 765 mmHg 69%
    04:00 -1°C° 0 mm 2 mps 765 mmHg 70%
    05:00 -1°C° 0 mm 2 mps 765 mmHg 72%
    06:00 -1°C° 0 mm 3 mps 765 mmHg 73%
    07:00 -1°C° 0 mm 3 mps 765 mmHg 74%
    08:00 +1°C° 0 mm 3 mps 765 mmHg 70%
    09:00 +2°C° 0 mm 3 mps 766 mmHg 67%
    10:00 +3°C° 0 mm 3 mps 766 mmHg 63%
    11:00 +5°C° 0 mm 3 mps 765 mmHg 60%
    12:00 +7°C° 0 mm 3 mps 765 mmHg 58%
    13:00 +8°C° 0 mm 3 mps 765 mmHg 56%
    14:00 +8°C° 0 mm 3 mps 764 mmHg 57%
    15:00 +9°C° 0 mm 3 mps 764 mmHg 58%
    16:00 +9°C° 0 mm 2 mps 764 mmHg 59%
    17:00 +8°C° 0 mm 2 mps 764 mmHg 64%
    18:00 +6°C° 0 mm 2 mps 764 mmHg 68%
    19:00 +5°C° 0 mm 2 mps 764 mmHg 73%
    20:00 +5°C° 0 mm 2 mps 764 mmHg 75%
    21:00 +5°C° 0 mm 2 mps 764 mmHg 77%
    22:00 +4°C° 0 mm 2 mps 764 mmHg 80%
    23:00 +3°C° 0 mm 3 mps 763 mmHg 81%

    26 February, Tuesday

    Time Temperature Precipitation Wind Pressure Humidity
    00:00 +3°C° 0 mm 3 mps 763 mmHg 82%
    01:00 +3°C° 0 mm 3 mps 762 mmHg 84%
    02:00 +2°C° 0 mm 3 mps 762 mmHg 84%
    03:00 +2°C° 0 mm 3 mps 762 mmHg 85%
    04:00 +2°C° 0 mm 3 mps 761 mmHg 85%
    05:00 +1°C° 0 mm 4 mps 761 mmHg 85%
    06:00 +1°C° 0 mm 4 mps 760 mmHg 84%
    07:00 +1°C° 0 mm 4 mps 760 mmHg 84%
    08:00 +3°C° 0 mm 5 mps 760 mmHg 78%
    09:00 +4°C° 0 mm 6 mps 759 mmHg 73%
    10:00 +5°C° 0 mm 6 mps 759 mmHg 68%
    11:00 +8°C° 0 mm 6 mps 759 mmHg 63%
    12:00 +9°C° 0 mm 7 mps 758 mmHg 58%
    13:00 +10°C° 0 mm 7 mps 758 mmHg 53%
    14:00 +10°C° 0 mm 6 mps 757 mmHg 54%
    15:00 +10°C° 0 mm 6 mps 757 mmHg 56%
    16:00 +10°C° 0 mm 6 mps 757 mmHg 58%
    17:00 +9°C° 0 mm 5 mps 757 mmHg 63%
    18:00 +9°C° 0 mm 5 mps 757 mmHg 69%
    19:00 +8°C° 0 mm 4 mps 758 mmHg 74%
    20:00 +7°C° 0 mm 4 mps 758 mmHg 81%
    21:00 +7°C° 0 mm 3 mps 758 mmHg 87%
    22:00 +4°C° 0 mm 3 mps 758 mmHg 94%
    23:00 +4°C° 0 mm 3 mps 759 mmHg 95%
    Show more